Weather History for Sheridan, WY

Change the Weather History Date:

Friday, December 7, 2012

  Actual Average Record
Temperature  
Mean Temperature 21 °F 24 °F  
Max Temperature 31 °F 36 °F 62 °F (1970)
Min Temperature 11 °F 11 °F -28 °F (2013)
Degree Days  
Heating Degree Days 44 41  
Month to date heating degree days 198 284  
Since 1 July heating degree days 1882 2162  
Cooling Degree Days 0 0  
Month to date cooling degree days 0 0  
Year to date cooling degree days 664 419  
Moisture  
Dew Point 18 °F    
Average Humidity 71    
Maximum Humidity 92    
Minimum Humidity 50    
Precipitation  
Precipitation 0.04 in 0.02 in 0.42 in (1938)
Month to date precipitation 0.29 0.14  
Year to date precipitation 9.32 13.74  
Snow  
Snow 0.00 in 0.40 in 4.30 in (1988)
Month to date snowfall 2.7  
Since 1 July snowfall 19.8  
Snow Depth -    
Sea Level Pressure  
Sea Level Pressure 29.93 in    
Wind  
Wind Speed 6 mph (SW)    
Max Wind Speed 17 mph    
Max Gust Speed 21 mph    
Visibility 8 miles    
Events Snow    
T = Trace of Precipitation, MM = Missing Value Source: NWS Daily Summary

Daily Weather History Graph

Daily Weather History Graph

Search for Another Location

Airport:

Trip Planner

Search our weather history database for the weather conditions in past years. The results will help you decide how hot, cold, wet, or windy it might be!

Date:

Astronomy

Dec. 07, 2012 Rise Set
Actual Time 7:32 AM MST 4:27 PM MST
Civil Twilight 6:58 AM MST 5:00 PM MST
Nautical Twilight 6:21 AM MST 5:37 PM MST
Astronomical Twilight 5:46 AM MST 6:12 PM MST
Moon 12:40 AM MST (12/7) 12:38 PM MST (12/7)
Length of Visible Light 10h 01m
Length of Day
8h 55m
Last Quarter, 38% of the Moon is Illuminated
Dec 7
Last Quarter
Dec 13
New
Dec 19
First Quarter
Dec 28
Full
Jan 4
Last Quarter

Hourly Weather History & Observations

Time (MST) Temp. Windchill Dew Point Humidity Pressure Visibility Wind Dir Wind Speed Gust Speed Precip Events Conditions
12:21 AM 28.4 °F 21.2 °F 26.6 °F 93% 29.88 in 1.2 mi West 6.9 mph - 0.02 in Snow Light Snow
12:40 AM 28.4 °F 21.2 °F 26.6 °F 93% 29.87 in 1.5 mi West 6.9 mph - 0.03 in Snow Light Snow
12:53 AM 28.9 °F 22.8 °F 27.0 °F 92% 29.95 in 2.0 mi West 5.8 mph - 0.03 in Snow Light Snow
1:04 AM 28.4 °F 20.4 °F 26.6 °F 93% 29.88 in 4.0 mi West 8.1 mph - 0.00 in Snow Light Snow
1:25 AM 28.4 °F 20.4 °F 26.6 °F 93% 29.88 in 4.0 mi West 8.1 mph - 0.00 in Snow Light Snow
1:53 AM 28.9 °F 22.8 °F 26.1 °F 89% 29.94 in 10.0 mi West 5.8 mph - 0.00 in Snow Light Snow
2:53 AM 28.0 °F 20.0 °F 25.0 °F 88% 29.96 in 10.0 mi West 8.1 mph - 0.00 in   Overcast
3:53 AM 28.9 °F 21.1 °F 24.1 °F 82% 29.95 in 10.0 mi WNW 8.1 mph - N/A   Overcast
4:53 AM 21.0 °F 14.6 °F 19.0 °F 92% 29.98 in 10.0 mi NW 4.6 mph - N/A   Partly Cloudy
5:53 AM 21.9 °F - 17.1 °F 82% 29.97 in 10.0 mi Calm Calm - N/A   Clear
6:53 AM 15.1 °F 5.2 °F 10.9 °F 84% 29.99 in 10.0 mi SSW 6.9 mph - N/A   Clear
7:53 AM 16.0 °F 6.3 °F 12.0 °F 84% 30.01 in 10.0 mi SW 6.9 mph - N/A   Scattered Clouds
8:53 AM 21.0 °F 14.6 °F 17.1 °F 85% 30.01 in 8.0 mi SE 4.6 mph - 0.00 in Snow Light Snow
9:38 AM 24.8 °F - 17.6 °F 74% 29.90 in 1.8 mi Calm Calm - 0.00 in Snow Light Snow
9:50 AM 23.0 °F 14.7 °F 19.4 °F 86% 29.90 in 3.0 mi SSW 6.9 mph - 0.01 in Snow Light Snow
9:53 AM 23.0 °F 14.7 °F 19.0 °F 85% 30.03 in 7.0 mi SSW 6.9 mph - 0.01 in Snow Light Snow
10:04 AM 23.0 °F 15.8 °F 19.4 °F 86% 29.91 in 9.0 mi SSW 5.8 mph - 0.00 in   Mostly Cloudy
10:53 AM 24.1 °F 18.2 °F 19.9 °F 84% 30.02 in 10.0 mi SSW 4.6 mph - 0.00 in   Mostly Cloudy
11:53 AM 27.0 °F 16.7 °F 21.9 °F 81% 29.98 in 10.0 mi South 11.5 mph - 0.00 in   Mostly Cloudy
12:53 PM 30.0 °F 24.1 °F 24.1 °F 79% 29.96 in 10.0 mi SSW 5.8 mph - N/A   Mostly Cloudy
1:53 PM 30.9 °F - 23.0 °F 72% 29.94 in 10.0 mi Calm Calm - N/A   Scattered Clouds
2:53 PM 28.0 °F - 21.9 °F 78% 29.96 in 10.0 mi Calm Calm - N/A   Partly Cloudy
3:53 PM 24.1 °F 17.0 °F 17.1 °F 75% 29.96 in 10.0 mi SW 5.8 mph - N/A   Clear
4:53 PM 18.0 °F 11.1 °F 10.9 °F 74% 30.00 in 10.0 mi South 4.6 mph - N/A   Clear
5:53 PM 15.8 °F 6.1 °F 8.6 °F 73% 29.83 in 10.0 mi SSW 6.9 mph - N/A   Clear
6:53 PM 21.0 °F 10.6 °F 8.1 °F 57% 29.98 in 10.0 mi SSW 9.2 mph - N/A   Clear
7:53 PM 21.9 °F 11.7 °F 9.0 °F 58% 29.93 in 10.0 mi SSW 9.2 mph - N/A   Clear
8:53 PM 23.0 °F 18.4 °F 8.1 °F 53% 29.89 in 10.0 mi SE 3.5 mph - N/A   Clear
9:53 PM 23.0 °F - 10.0 °F 58% 29.85 in 10.0 mi Calm Calm - N/A   Clear
10:53 PM 28.0 °F 22.8 °F 12.0 °F 51% 29.80 in 10.0 mi SSW 4.6 mph - N/A   Clear
11:53 PM 27.0 °F 18.0 °F 12.9 °F 56% 29.75 in 10.0 mi SW 9.2 mph - N/A   Clear